KA8OAD-10 Weather Reports


time (UTC)temp
C
wind
direction
speed
KPH
gust
KPH
rain 1hr
cm
rain 24hr
cm
rain mn
cm
humidity
%
barometer
mb
20260508075231 8 244 1.6 6.4 0.00 0.00 0.03 79 1010.9
20260508074230 8 248 3.2 6.4 0.00 0.00 0.03 79 1010.9
20260508073729 8 242 3.2 8.0 0.00 0.00 0.03 78 1011.0
20260508072732 8 239 4.8 11.3 0.00 0.00 0.03 77 1011.0
20260508072231 8 242 4.8 12.9 0.00 0.00 0.03 76 1011.0
20260508070730 8 232 8.0 20.9 0.00 0.00 0.00 72 1011.1
20260508070229 8 230 8.0 16.1 0.00 0.00 0.00 70 1011.2
20260508065733 8 228 4.8 14.5 0.00 0.00 0.00 70 1011.1
20260508065232 8 234 3.2 12.9 0.00 0.00 0.00 70 1011.0
20260508064732 8 232 3.2 12.9 0.00 0.00 0.00 70 1011.1
20260508064231 8 225 3.2 9.7 0.00 0.00 0.00 70 1011.1
20260508063230 8 238 3.2 6.4 0.00 0.00 0.00 70 1011.1
20260508062730 8 240 1.6 6.4 0.00 0.00 0.00 70 1011.2
20260508061733 8 0 0.0 0.0 0.00 0.00 0.00 70 1011.1
20260508061232 8 239 0.0 3.2 0.00 0.00 0.00 70 1011.1
20260508060732 8 239 0.0 3.2 0.00 0.00 0.00 70 1011.1
20260508060231 8 238 0.0 1.6 0.00 0.00 0.00 69 1011.2
20260508055731 8 0 0.0 0.0 0.00 0.00 0.00 69 1011.2
20260508055230 8 0 0.0 0.0 0.00 0.00 0.00 69 1011.2
20260508054229 8 0 0.0 0.0 0.00 0.00 0.00 69 1011.4
20260508053733 8 0 0.0 0.0 0.00 0.00 0.00 68 1011.5
20260508053232 8 0 0.0 0.0 0.00 0.00 0.00 68 1011.5
20260508052732 8 0 0.0 0.0 0.00 0.00 0.00 68 1011.6
20260508052231 8 0 0.0 0.0 0.00 0.00 0.00 68 1011.6
20260508051230 8 0 0.0 0.0 0.00 0.00 0.00 68 1011.6
20260508050730 8 0 0.0 0.0 0.00 0.00 0.00 67 1011.7
20260508050230 8 0 0.0 0.0 0.00 0.00 0.00 67 1011.8
20260508045232 8 0 0.0 0.0 0.00 0.00 0.00 67 1011.7
20260508044732 8 0 0.0 0.0 0.00 0.00 0.00 67 1011.6
20260508044231 8 240 0.0 1.6 0.00 0.00 0.00 67 1011.6
20260508043230 8 239 3.2 4.8 0.00 0.00 0.00 67 1011.6
20260508042730 8 237 3.2 6.4 0.00 0.00 0.00 67 1011.7
20260508041733 8 230 3.2 6.4 0.00 0.00 0.00 67 1011.7
20260508041232 8 227 4.8 8.0 0.00 0.00 0.00 67 1011.8
20260508040732 8 230 3.2 8.0 0.00 0.00 0.00 67 1011.7
20260508040231 7 234 3.2 6.4 0.00 0.00 0.00 68 1011.8
20260508035732 7 230 3.2 8.0 0.00 0.00 0.00 68 1011.8
20260508034730 7 245 3.2 8.0 0.00 0.00 0.00 69 1011.8
20260508034229 7 254 3.2 9.7 0.00 0.00 0.00 69 1011.9
20260508033232 7 273 1.6 6.4 0.00 0.00 0.00 70 1011.8
20260508032732 7 295 1.6 6.4 0.00 0.00 0.00 69 1011.9
20260508032231 7 320 0.0 1.6 0.00 0.00 0.00 68 1011.9
20260508031230 7 0 0.0 0.0 0.00 0.00 0.00 68 1011.8
20260508030731 7 321 0.0 1.6 0.00 0.00 0.00 68 1011.8
20260508030229 7 321 0.0 1.6 0.00 0.00 0.00 68 1011.8
20260508025733 7 321 0.0 1.6 0.00 0.00 0.00 68 1011.8
20260508024732 7 0 0.0 0.0 0.00 0.00 0.00 68 1011.8
20260508024231 7 0 0.0 0.0 0.00 0.00 0.00 67 1011.8
20260508023731 7 0 0.0 0.0 0.00 0.00 0.00 68 1011.7
20260508023230 7 0 0.0 0.0 0.00 0.00 0.00 67 1011.6
20260508022730 8 0 0.0 0.0 0.00 0.00 0.00 67 1011.6
20260508022229 8 0 0.0 0.0 0.00 0.00 0.00 67 1011.6
20260508021232 8 0 0.0 0.0 0.00 0.00 0.00 66 1011.6
20260508020732 8 0 0.0 0.0 0.00 0.00 0.00 65 1011.6
20260508020231 8 0 0.0 0.0 0.00 0.00 0.00 65 1011.6
20260508015731 8 0 0.0 0.0 0.00 0.00 0.00 64 1011.6
20260508015230 8 0 0.0 0.0 0.00 0.00 0.00 63 1011.5
20260508014730 8 0 0.0 0.0 0.00 0.00 0.00 62 1011.5
20260508014229 8 0 0.0 0.0 0.00 0.00 0.00 62 1011.5
20260508013733 8 0 0.0 0.0 0.00 0.00 0.00 61 1011.4
20260508013232 9 0 0.0 0.0 0.00 0.00 0.00 61 1011.3
20260508012731 9 0 0.0 0.0 0.00 0.00 0.00 59 1011.3
20260508012230 9 0 0.0 0.0 0.00 0.00 0.00 57 1011.4
20260508011730 10 0 0.0 0.0 0.00 0.00 0.00 57 1011.3
20260508011230 10 0 0.0 0.0 0.00 0.00 0.00 56 1011.2
20260508010730 10 0 0.0 0.0 0.00 0.00 0.00 54 1011.2
20260508005732 10 0 0.0 0.0 0.00 0.00 0.00 52 1011.2
20260508005231 10 0 0.0 0.0 0.00 0.00 0.00 51 1011.2
20260508004731 11 0 0.0 0.0 0.00 0.00 0.00 51 1011.2
20260508004230 11 320 0.0 1.6 0.00 0.00 0.00 51 1011.2
20260508003730 11 321 0.0 6.4 0.00 0.00 0.00 50 1011.1
20260508003233 11 321 1.6 6.4 0.00 0.00 0.00 48 1011.0
20260508002733 11 314 3.2 11.3 0.00 0.00 0.00 48 1011.0
20260508002232 11 314 3.2 12.9 0.00 0.00 0.00 48 1011.0
20260508001732 11 324 3.2 12.9 0.00 0.00 0.00 47 1010.9
20260508001231 11 298 3.2 9.7 0.00 0.00 0.00 47 1010.9
20260508000731 11 278 3.2 9.7 0.00 0.00 0.00 48 1010.8
20260508000230 11 294 4.8 8.0 0.00 0.00 0.00 47 1010.8
20260507235730 11 304 4.8 14.5 0.00 0.00 0.00 47 1010.7
20260507234733 12 304 8.0 17.7 0.00 0.00 0.00 45 1010.7
20260507234232 12 306 8.0 17.7 0.00 0.00 0.00 46 1010.7
20260507233732 12 307 8.0 22.5 0.00 0.00 0.00 46 1010.6
20260507233231 12 313 6.4 22.5 0.00 0.00 0.00 46 1010.6
20260507232730 12 312 6.4 17.7 0.00 0.00 0.00 46 1010.6
20260507230732 12 298 4.8 20.9 0.00 0.00 0.00 46 1010.7
20260507225731 12 300 6.4 14.5 0.00 0.00 0.00 46 1010.7
20260507225230 12 310 8.0 19.3 0.00 0.00 0.00 47 1010.8
20260507224730 12 311 8.0 25.7 0.00 0.00 0.00 46 1010.8
20260507224233 12 309 6.4 25.7 0.00 0.00 0.00 47 1010.6
20260507223232 12 299 6.4 20.9 0.00 0.00 0.00 47 1010.7
20260507222732 12 307 6.4 20.9 0.00 0.00 0.00 46 1010.7
20260507221731 12 311 8.0 19.3 0.00 0.00 0.00 48 1010.7
20260507221230 12 325 6.4 16.1 0.00 0.00 0.00 48 1010.6
20260507215232 13 308 8.0 27.4 0.00 0.00 0.00 51 1010.6
20260507214731 13 308 9.7 29.0 0.00 0.00 0.00 50 1010.5
20260507214231 13 314 8.0 29.0 0.00 0.00 0.00 49 1010.5
20260507213730 13 315 6.4 22.5 0.00 0.00 0.00 50 1010.4
20260507213230 13 316 6.4 19.3 0.00 0.00 0.00 51 1010.2
20260507212729 13 311 6.4 19.3 0.00 0.00 0.00 49 1010.2
20260507204732 14 306 8.0 20.9 0.00 0.00 0.00 45 1010.0
20260507204231 14 297 6.4 20.9 0.00 0.00 0.00 46 1009.9
20260507203230 14 294 6.4 19.3 0.00 0.00 0.00 46 1009.8
20260507202730 14 305 6.4 19.3 0.00 0.00 0.00 45 1009.7
20260507201733 15 302 8.0 19.3 0.00 0.00 0.00 44 1009.8
20260507201231 15 310 8.0 22.5 0.00 0.00 0.00 44 1009.9
20260507200731 15 314 8.0 22.5 0.00 0.00 0.00 45 1009.7
20260507200230 15 315 6.4 14.5 0.00 0.00 0.00 44 1009.8
20260507195730 15 316 8.0 24.1 0.00 0.00 0.00 43 1009.7
20260507195233 15 308 9.7 25.7 0.00 0.00 0.00 42 1009.8
20260507194733 15 281 6.4 25.7 0.00 0.00 0.00 41 1009.9
20260507194232 16 259 6.4 19.3 0.00 0.00 0.00 43 1009.9
20260507193731 16 295 4.8 14.5 0.00 0.00 0.00 44 1010.0
20260507192730 16 281 6.4 16.1 0.00 0.00 0.00 42 1010.0
20260507192230 16 300 6.4 16.1 0.00 0.00 0.00 41 1010.1
20260507191730 16 311 8.0 19.3 0.00 0.00 0.00 44 1010.1
20260507191233 16 310 6.4 19.3 0.00 0.00 0.00 41 1010.0
20260507190733 16 311 4.8 17.7 0.00 0.00 0.00 43 1010.1
20260507190232 16 273 6.4 16.1 0.00 0.00 0.00 46 1010.1
20260507185732 16 235 8.0 12.9 0.00 0.00 0.00 44 1010.0
20260507185231 15 257 8.0 20.9 0.00 0.00 0.00 47 1010.1
20260507184730 15 279 8.0 22.5 0.00 0.00 0.00 47 1010.2
20260507184230 15 257 6.4 22.5 0.00 0.00 0.00 43 1010.2
20260507183730 15 241 6.4 19.3 0.00 0.00 0.00 42 1010.3
20260507182732 16 232 6.4 17.7 0.00 0.00 0.00 41 1010.1
20260507182232 16 236 6.4 16.1 0.00 0.00 0.00 42 1010.2
20260507181731 16 252 6.4 12.9 0.00 0.00 0.00 40 1010.2
20260507180730 16 264 4.8 12.9 0.00 0.00 0.00 41 1010.2
20260507180229 16 253 6.4 17.7 0.00 0.00 0.00 42 1010.3
20260507175729 16 265 6.4 17.7 0.00 0.00 0.00 39 1010.3
20260507175233 16 270 6.4 22.5 0.00 0.00 0.00 44 1010.3
20260507174732 16 276 6.4 22.5 0.00 0.00 0.00 43 1010.1
20260507173731 16 269 8.0 20.9 0.00 0.00 0.00 46 1010.4
20260507172730 15 246 6.4 14.5 0.00 0.00 0.00 47 1010.4
20260507172230 15 245 8.0 17.7 0.00 0.00 0.00 46 1010.4
20260507171729 15 254 4.8 17.7 0.00 0.00 0.00 44 1010.4
20260507171233 15 249 4.8 11.3 0.00 0.00 0.00 41 1010.5
20260507170731 15 263 4.8 16.1 0.00 0.00 0.00 45 1010.5
20260507170233 15 271 4.8 16.1 0.00 0.00 0.00 45 1010.5
20260507165232 16 307 4.8 16.1 0.00 0.00 0.00 43 1010.5
20260507164732 16 283 4.8 16.1 0.00 0.00 0.00 42 1010.5
20260507164231 16 280 4.8 14.5 0.00 0.00 0.00 46 1010.6
20260507162733 15 304 4.8 14.5 0.00 0.00 0.00 47 1010.6
20260507162232 15 305 4.8 12.9 0.00 0.00 0.00 43 1010.6
20260507161732 15 308 6.4 19.3 0.00 0.00 0.00 46 1010.6
20260507160230 15 282 4.8 16.1 0.00 0.00 0.00 45 1010.6
20260507155730 15 285 4.8 16.1 0.00 0.00 0.00 45 1010.6
20260507155233 15 289 4.8 12.9 0.00 0.00 0.00 46 1010.7
20260507154732 15 313 6.4 22.5 0.00 0.00 0.00 45 1010.7
20260507154232 15 306 6.4 22.5 0.00 0.00 0.00 46 1010.7
20260507153731 15 266 4.8 19.3 0.00 0.00 0.00 47 1010.7
20260507153230 15 238 3.2 12.9 0.00 0.00 0.00 45 1010.7
20260507152730 14 285 4.8 16.1 0.00 0.00 0.00 48 1010.7
20260507152230 14 281 4.8 16.1 0.00 0.00 0.00 49 1010.7
20260507151730 14 255 3.2 9.7 0.00 0.00 0.00 48 1010.8
20260507151232 14 281 3.2 9.7 0.00 0.00 0.00 50 1010.7
20260507150732 14 243 4.8 9.7 0.00 0.00 0.00 52 1010.7
20260507145731 13 294 4.8 12.9 0.00 0.00 0.00 53 1010.9
20260507145230 13 301 4.8 9.7 0.00 0.00 0.00 55 1010.8
20260507143729 12 260 3.2 6.4 0.00 0.00 0.00 62 1010.9
20260507143233 11 289 3.2 8.0 0.00 0.00 0.00 61 1010.9
20260507142732 11 317 4.8 9.7 0.00 0.00 0.00 62 1010.9
20260507142232 11 310 4.8 9.7 0.00 0.00 0.00 63 1011.0
20260507141731 11 286 3.2 9.7 0.00 0.00 0.00 66 1011.0
20260507141230 11 286 3.2 8.0 0.00 0.00 0.00 68 1011.1
20260507140730 10 310 4.8 8.0 0.00 0.00 0.00 68 1011.2
20260507135733 10 258 3.2 4.8 0.00 0.00 0.00 72 1011.2
20260507135232 10 284 1.6 4.8 0.00 0.00 0.00 74 1011.3
20260507133730 9 239 3.2 8.0 0.00 0.00 0.00 76 1011.4
20260507133229 9 253 3.2 9.7 0.00 0.00 0.00 76 1011.4
20260507132733 8 249 3.2 9.7 0.00 0.00 0.00 77 1011.5
20260507132232 8 275 4.8 14.5 0.00 0.00 0.00 78 1011.5
20260507131732 8 306 4.8 14.5 0.00 0.00 0.00 80 1011.5
20260507131231 8 302 1.6 8.0 0.00 0.00 0.00 82 1011.5
20260507130731 8 290 0.0 4.8 0.00 0.00 0.00 83 1011.5
20260507130230 7 240 1.6 4.8 0.00 0.00 0.00 84 1011.4
20260507125729 7 239 1.6 4.8 0.00 0.00 0.00 86 1011.4
20260507125233 7 238 1.6 6.4 0.00 0.00 0.00 87 1011.5
20260507124231 7 249 3.2 9.7 0.00 0.00 0.00 88 1011.4
20260507123731 6 250 1.6 9.7 0.00 0.00 0.00 90 1011.5
20260507123230 6 263 1.6 6.4 0.00 0.00 0.00 90 1011.5
20260507120732 5 267 0.0 4.8 0.00 0.00 0.00 91 1011.4
20260507120232 5 317 0.0 3.2 0.00 0.00 0.00 91 1011.4
20260507114730 4 330 0.0 4.8 0.00 0.00 0.00 90 1011.5
20260507114229 4 0 0.0 0.0 0.00 0.00 0.00 90 1011.5
20260507113729 4 0 0.0 0.0 0.00 0.00 0.00 90 1011.5
20260507112732 3 0 0.0 0.0 0.00 0.00 0.00 89 1011.3
20260507112232 3 0 0.0 0.0 0.00 0.00 0.00 89 1011.2
20260507111231 3 0 0.0 0.0 0.00 0.00 0.00 89 1011.3
20260507110730 3 0 0.0 0.0 0.00 0.00 0.00 89 1011.2
20260507105733 3 0 0.0 0.0 0.00 0.00 0.00 89 1011.1
20260507100732 3 0 0.0 0.0 0.00 0.00 0.00 89 1011.0
20260507100231 3 0 0.0 0.0 0.00 0.00 0.00 88 1011.0
20260507095230 3 0 0.0 0.0 0.00 0.00 0.00 88 1010.9
20260507094233 3 0 0.0 0.0 0.00 0.03 0.00 88 1011.0
20260507091730 3 0 0.0 0.0 0.00 0.08 0.00 88 1011.1
20260507090733 3 0 0.0 0.0 0.00 0.13 0.00 88 1011.1
20260507090232 3 0 0.0 0.0 0.00 0.13 0.00 88 1011.1
20260507085732 3 0 0.0 0.0 0.00 0.13 0.00 87 1011.1
20260507085231 3 0 0.0 0.0 0.00 0.13 0.00 87 1011.2
20260507084731 4 0 0.0 0.0 0.00 0.13 0.00 87 1011.1
20260507084231 4 0 0.0 0.0 0.00 0.13 0.00 87 1011.1
20260507083229 4 0 0.0 0.0 0.00 0.13 0.00 86 1011.2
20260507082733 4 0 0.0 0.0 0.00 0.13 0.00 86 1011.2
20260507082233 4 0 0.0 0.0 0.00 0.13 0.00 86 1011.2
20260507081732 4 0 0.0 0.0 0.00 0.18 0.00 86 1011.2
20260507080230 4 0 0.0 0.0 0.00 0.25 0.00 86 1011.2
20260507075730 4 0 0.0 0.0 0.00 0.25 0.00 86 1011.3